FOX-1

Satellite information

Favourite Embed

Satellite Type and Status

PAYLOADIN ORBIT

Key statistics

Satellite FOX-1 at a glance.

Uptime

3720

Days in orbit

Revolutions

≈ 14.9

Per day

Orbit

LEO

Low Earth Orbit

Inclination

64.8

Latest

Satellite identification and parameters

Extended collection of information and parameters for FOX-1.

Object identification

Identified? True

Debris? False

Object name: FOX-1

International designator: 2015-058D

Object number (NORAD): 40967

Object ID (CCSDS): 40967

Country: UNITED STATES OF AMERICA (US)

Current information (Y/N): Y

RCS size: MEDIUM

Orbital parameters

Period: 96.666 minutes

Inclination: 64.7745 deg

SMA: 6977.102 km

Apoapsis: 693.003 km

Periapsis: 504.931 km

RAAN: 134.9271 deg

Eccentricy: 0.01347784

Argument of periapsis: 129.6363 deg

Mean anomaly: 231.6735 deg

Mean motion: 14.89670309 rev/day

Mean motion (dot): 0.0000572 rev/day2

B* drag term: 0.00051714067 1/REarth

Two-line elements (TLE)

Creation date: Dec. 14, 2025, 3:07 a.m.

Reference frame: TEME

Reference center: EARTH

Epoch: Dec. 13, 2025, 4:21 p.m. UTC

TLE line 0: 0 FOX-1

TLE line 1: 1 40967U 15058D 25347.68130927 .00005720 00000-0 51714-3 0 9997

TLE line 2: 2 40967 64.7745 134.9271 0134778 129.6363 231.6735 14.89670309 85926

Live tracking on map

Real-time ground track for satellite FOX-1.

In-orbit conjunctions

There are no conjunctions computed for FOX-1, at the moment. Check back to stay up to date, as we update our databases every day.

Go to all conjunctions

Associated space launch

Classified payload for the U.S. National Reconnaissance Office.

FOX-1 was lifted into orbit during the mission ‘Atlas V 401 | NROL-55 (Multipayload mission)’, on board a Atlas V 401 space rocket.

The launch took place on Oct. 8, 2015, 12:49 p.m. from Space Launch Complex 3E.

For more information about the launch, click the button.

Launch to space Atlas V 401 | NROL-55 (Multipayload mission)
Atlas V 401 | NROL-55 (Multipayload mission)

Agency: N/A

Status: Launch Successful

Launch date: Oct. 8, 2015, 12:49 p.m. UTC

Rocket: Atlas V 401

Launch pad: Space Launch Complex 3E

Location: Vandenberg SFB, CA, USA

...

Latest news about this satellite

There are no fresh news available about this satellite. Check back as we update our databases every day.


Newsletter sign-up

Weekly statistics, charts and insights to help you stay on top of the space industry.